Home   Weather   Chester   Past weeks

Flag for United Kingdom Past Weather in Chester, England, United Kingdom — Yesterday and Last 2 Weeks

Now
61 °F

Partly sunny.


Feels Like: 61 °F
Forecast: 56 / 71 °F
Wind: 13 mph from South

Location: Hawarden Airport

Current Time: Sep 27, 2016 at 9:48:35 AM

Latest Report: Sep 27, 2016 at 9:20 AM


Visibility: N/A

Pressure: 30.01 "Hg

Humidity: 94%

Dew Point: 59 °F

Location of ChesterLocation

Past Weather in Chester — Graph

°F

Chester Temperature Yesterday

Maximum temperature yesterday: 59 °F (at 1:50 PM)
Minimum temperature yesterday: 50 °F (at 6:50 AM)
Average temperature yesterday: 56 °F

High & Low Weather Summary for the Past Weeks

 TemperatureHumidityPressure
High82 °F (Sep 14, 3:20 PM)100% (Sep 13, 6:20 AM)30.24 "Hg (Sep 13, 6:20 AM)
Low45 °F (Sep 23, 6:20 AM)46% (Sep 22, 4:20 PM)29.74 "Hg (Sep 24, 6:50 PM)
Average62 °F79%30.02 "Hg
* Reported Sep 12 8:20 AM — Sep 27 8:20 AM, Chester, Weather by CustomWeather, © 2016

Note: Actual official high and low records may vary slightly from our data, if they occured in-between our weather recording intervals... More about our weather records

Advertising

Chester Weather History for the Previous 24 Hours

Scroll right to see more
 ConditionsComfort  
Time TempWeatherWind HumidityBarometerVisibility
8:20 AM
Tue, Sep 27
59 °FScattered clouds.10 mph94%30.01 "HgN/A
7:50 AM59 °FScattered clouds.13 mph88%30.01 "HgN/A
7:20 AM57 °FScattered clouds.15 mph94%29.98 "HgN/A
6:50 AM57 °FPassing clouds.15 mph94%29.98 "HgN/A
6:20 AM57 °FPassing clouds.16 mph94%30.01 "HgN/A
8:50 PM
Mon, Sep 26
57 °FPartly cloudy.8 mph100%30.09 "HgN/A
8:20 PM59 °FPassing clouds.6 mph94%30.09 "HgN/A
7:50 PM57 °FPassing clouds.7 mph100%30.09 "HgN/A
7:20 PM57 °FPassing clouds.9 mph100%30.07 "Hg4 mi
6:50 PM59 °FPartly sunny.8 mph94%30.07 "HgN/A
6:20 PM59 °FPartly sunny.8 mph94%30.07 "HgN/A
5:50 PM59 °FPartly sunny.7 mph94%30.07 "HgN/A
5:20 PM59 °FPartly sunny.9 mph94%30.04 "HgN/A
4:50 PM59 °FScattered showers. Partly sunny.12 mph94%30.04 "HgN/A
4:20 PM59 °FScattered showers. Partly sunny.13 mph94%30.04 "HgN/A
3:50 PM59 °FPartly sunny.12 mph94%30.07 "HgN/A
3:20 PM57 °FLight rain. Partly sunny.10 mph100%30.07 "Hg5 mi
2:50 PM57 °FLight rain. Partly sunny.9 mph100%30.07 "Hg4 mi
2:20 PM59 °FLight rain. Partly sunny.12 mph94%30.07 "HgN/A
1:50 PM59 °FLight rain. Partly sunny.12 mph94%30.07 "HgN/A
1:20 PM57 °FRain. Broken clouds.12 mph100%30.07 "HgN/A
12:50 PM57 °FLight rain. Partly sunny.14 mph94%30.07 "Hg5 mi
12:20 PM57 °FLight rain. Partly sunny.10 mph94%30.07 "Hg5 mi
11:50 AM55 °FLight rain. Broken clouds.12 mph100%30.07 "Hg5 mi
11:20 AM55 °FLight rain. Broken clouds.9 mph94%30.09 "Hg5 mi
10:50 AM54 °FLight rain. Broken clouds.12 mph100%30.09 "Hg5 mi
10:20 AM54 °FLight rain. Partly sunny.9 mph100%30.09 "Hg6 mi
9:50 AM54 °FLight rain. Scattered clouds.6 mph94%30.09 "Hg6 mi
9:20 AM54 °FLight rain. Scattered clouds.7 mph94%30.09 "HgN/A
Weather by CustomWeather, © 2016

See weather overviewHow to use our weather pages